TRA38S LEAL-EHAM

Flight info

Callsign TRA38S
Flight time N/A
Altitude 32000
Route MITOS DCT ARGOR DCT EBROX/N0446F340 DCT LATRO DCT OLOXO DCT OKABI DCT TOU/N0447F360 DCT ADABI DCT BOKNO DCT DEVRO DCT VANAD DCT PIWIZ DCT VADOM DCT BAMES DCT ARSAF DCT EGOZE DCT CMB DCT VEKIN DCT ADUTO N873 FERDI/N0400F240 Y18 DENUT
Aircraft A321/M-SDE3FGHIRWY/LB1

Departure

Time N/A
Airport Alicante-Elche Miguel Hernández Airport (LEAL)

Arrival

Time 2026-04-29 19:25
Airport Amsterdam Airport Schiphol (EHAM)
Time Latitude Longitude Altitude Speed Heading
2026-04-29 17:20 38.44752 -0.04159 11654 ft 381 kts 46°
2026-04-29 17:20 38.46766 -0.01948 12206 ft 384 kts 32°
2026-04-29 17:20 38.49135 -0.00362 12781 ft 386 kts 18°
2026-04-29 17:21 38.51719 0.00548 13344 ft 387 kts
2026-04-29 17:21 38.54362 0.01291 13905 ft 391 kts
2026-04-29 17:21 38.57031 0.02039 14441 ft 394 kts
2026-04-29 17:21 38.59719 0.02797 14986 ft 397 kts
2026-04-29 17:22 38.62424 0.03564 15537 ft 399 kts
2026-04-29 17:22 38.65145 0.04338 16077 ft 402 kts
2026-04-29 17:22 38.67881 0.05117 16627 ft 404 kts 10°
2026-04-29 17:22 38.70637 0.05900 17152 ft 407 kts 10°
2026-04-29 17:23 38.73413 0.06692 17664 ft 410 kts 10°
2026-04-29 17:23 38.76208 0.07492 18169 ft 413 kts 10°
2026-04-29 17:23 38.79024 0.08297 18598 ft 416 kts 10°
2026-04-29 17:23 38.81855 0.09105 19025 ft 418 kts 10°
2026-04-29 17:24 38.84705 0.09920 19468 ft 420 kts 10°
2026-04-29 17:24 38.87567 0.10739 19890 ft 422 kts 10°
2026-04-29 17:24 38.90445 0.11564 20330 ft 425 kts 10°
2026-04-29 17:24 38.93333 0.12392 20765 ft 426 kts 10°
2026-04-29 17:25 38.96238 0.13223 21191 ft 429 kts 10°
2026-04-29 17:25 38.99154 0.14055 21612 ft 431 kts 10°
2026-04-29 17:25 39.02053 0.14882 22023 ft 433 kts 10°
2026-04-29 17:25 39.05000 0.15726 22433 ft 435 kts 10°
2026-04-29 17:26 39.07965 0.16575 22838 ft 437 kts 10°
2026-04-29 17:26 39.10944 0.17429 23244 ft 440 kts 10°
2026-04-29 17:26 39.13937 0.18290 23633 ft 442 kts 10°
2026-04-29 17:26 39.16946 0.19161 23969 ft 444 kts
2026-04-29 17:27 39.19961 0.20036 24308 ft 445 kts
2026-04-29 17:27 39.22997 0.20916 24630 ft 447 kts
2026-04-29 17:27 39.26038 0.21799 24953 ft 449 kts
2026-04-29 17:27 39.29094 0.22684 25275 ft 451 kts
2026-04-29 17:28 39.32157 0.23568 25596 ft 453 kts
2026-04-29 17:28 39.35240 0.24457 25927 ft 454 kts
2026-04-29 17:28 39.38332 0.25351 26234 ft 456 kts
2026-04-29 17:28 39.41437 0.26249 26548 ft 458 kts
2026-04-29 17:29 39.44550 0.27153 26848 ft 460 kts
2026-04-29 17:29 39.47675 0.28060 27153 ft 461 kts
2026-04-29 17:29 39.50771 0.28966 27438 ft 463 kts 10°
2026-04-29 17:29 39.52872 0.29766 27622 ft 468 kts 16°
2026-04-29 17:30 39.56801 0.32155 27976 ft 476 kts 27°
2026-04-29 17:30 39.59635 0.34384 28249 ft 478 kts 28°
2026-04-29 17:30 39.62486 0.36621 28505 ft 480 kts 27°
2026-04-29 17:30 39.65350 0.38866 28769 ft 482 kts 28°
2026-04-29 17:31 39.68220 0.41118 29111 ft 482 kts 28°
2026-04-29 17:31 39.71092 0.43373 29407 ft 483 kts 27°
2026-04-29 17:31 39.73966 0.45628 29779 ft 481 kts 27°
2026-04-29 17:31 39.76828 0.47874 30136 ft 480 kts 27°
2026-04-29 17:32 39.79686 0.50120 30438 ft 480 kts 27°
2026-04-29 17:32 39.82537 0.52369 30731 ft 480 kts 27°
2026-04-29 17:32 39.85393 0.54628 31012 ft 480 kts 27°
2026-04-29 17:32 39.88247 0.56888 31301 ft 480 kts 27°
2026-04-29 17:33 39.91097 0.59143 31597 ft 479 kts 27°
2026-04-29 17:33 39.93946 0.61399 31905 ft 479 kts 27°
2026-04-29 17:33 39.96791 0.63656 32203 ft 479 kts 27°
2026-04-29 17:33 39.99634 0.65912 32502 ft 478 kts 27°
2026-04-29 17:34 40.02473 0.68167 32802 ft 478 kts 27°
2026-04-29 17:34 40.05312 0.70424 33101 ft 478 kts 27°
2026-04-29 17:34 40.08149 0.72681 33388 ft 478 kts 27°
2026-04-29 17:34 40.10985 0.74938 33688 ft 477 kts 27°
2026-04-29 17:35 40.14738 0.77930 33929 ft 475 kts 27°
2026-04-29 17:35 40.19421 0.81678 33952 ft 469 kts 27°
2026-04-29 17:36 40.24981 0.86127 33954 ft 468 kts 27°
2026-04-29 17:36 40.30499 0.90549 33959 ft 468 kts 27°
2026-04-29 17:37 40.36051 0.95004 33956 ft 468 kts 27°
2026-04-29 17:37 40.41603 0.99465 33961 ft 468 kts 27°
2026-04-29 17:38 40.47156 1.03937 33974 ft 468 kts 27°
2026-04-29 17:38 40.52708 1.08431 33962 ft 469 kts 28°
2026-04-29 17:39 40.58259 1.12934 33964 ft 469 kts 28°
2026-04-29 17:39 40.63820 1.17447 33962 ft 470 kts 28°
2026-04-29 17:40 40.69405 1.21908 33965 ft 468 kts 24°
2026-04-29 17:40 40.75446 1.24800 33966 ft 460 kts 11°
2026-04-29 17:41 40.81627 1.26996 33969 ft 460 kts 11°
2026-04-29 17:41 40.87813 1.29243 33971 ft 461 kts 11°
2026-04-29 17:42 40.93995 1.31479 33967 ft 461 kts 12°
2026-04-29 17:42 41.00157 1.33705 33959 ft 462 kts 12°
2026-04-29 17:43 41.06371 1.35942 33956 ft 463 kts 12°
2026-04-29 17:43 41.12591 1.38190 33964 ft 464 kts 12°
2026-04-29 17:44 41.18824 1.40452 33957 ft 465 kts 12°
2026-04-29 17:44 41.25069 1.42720 33956 ft 466 kts 12°
2026-04-29 17:45 41.31322 1.44990 33959 ft 466 kts 12°
2026-04-29 17:45 41.37578 1.47273 33962 ft 467 kts 13°
2026-04-29 17:46 41.43852 1.49565 33958 ft 468 kts 13°
2026-04-29 17:46 41.49076 1.51479 33958 ft 469 kts 13°
2026-04-29 17:47 41.55367 1.53793 33960 ft 469 kts 14°
2026-04-29 17:47 41.61654 1.56106 33975 ft 468 kts 14°
2026-04-29 17:48 41.67933 1.58415 33976 ft 468 kts 14°
2026-04-29 17:48 41.74210 1.60685 33970 ft 467 kts 10°
2026-04-29 17:49 41.80638 1.61271 33962 ft 462 kts 353°
2026-04-29 17:49 41.87020 1.60279 33942 ft 462 kts 351°
2026-04-29 17:50 41.93408 1.59268 33931 ft 462 kts 351°
2026-04-29 17:50 41.99802 1.58260 33935 ft 463 kts 351°
2026-04-29 17:51 42.06164 1.57243 33942 ft 463 kts 351°
2026-04-29 17:51 42.12561 1.56218 33951 ft 463 kts 351°
2026-04-29 17:52 42.18964 1.55205 33995 ft 463 kts 352°
2026-04-29 17:52 42.25375 1.54182 33987 ft 464 kts 351°
2026-04-29 17:53 42.31790 1.53157 33987 ft 464 kts 352°
2026-04-29 17:53 42.38212 1.52127 33989 ft 465 kts 351°
2026-04-29 17:54 42.44651 1.51090 33986 ft 467 kts 352°
2026-04-29 17:54 42.51111 1.50057 33988 ft 468 kts 351°
2026-04-29 17:55 42.57582 1.49016 33988 ft 469 kts 351°
2026-04-29 17:55 42.64066 1.47967 33982 ft 469 kts 351°
2026-04-29 17:56 42.70552 1.46919 33972 ft 469 kts 351°
2026-04-29 17:56 42.77042 1.45877 33956 ft 469 kts 352°
2026-04-29 17:57 42.83529 1.44842 33954 ft 469 kts 351°
2026-04-29 17:57 42.90010 1.43791 33937 ft 469 kts 351°
2026-04-29 17:58 42.96500 1.42737 33937 ft 469 kts 352°
2026-04-29 17:58 43.02985 1.41683 33932 ft 469 kts 352°
2026-04-29 17:59 43.09468 1.40621 33944 ft 468 kts 352°
2026-04-29 17:59 43.15897 1.39570 33941 ft 468 kts 352°
2026-04-29 18:00 43.22365 1.38518 33937 ft 468 kts 352°
2026-04-29 18:00 43.28823 1.37463 33940 ft 467 kts 352°
2026-04-29 18:01 43.35280 1.36400 33948 ft 467 kts 352°
2026-04-29 18:01 43.41732 1.35342 33948 ft 467 kts 352°
2026-04-29 18:02 43.48187 1.34288 33958 ft 467 kts 352°
2026-04-29 18:02 43.54639 1.33219 33960 ft 466 kts 352°
2026-04-29 18:03 43.61081 1.32143 33960 ft 466 kts 352°
2026-04-29 18:03 43.67520 1.31080 33960 ft 466 kts 352°
2026-04-29 18:04 43.73876 1.29719 33957 ft 465 kts 348°
2026-04-29 18:04 43.80219 1.27963 33955 ft 465 kts 347°
2026-04-29 18:05 43.86561 1.26185 33948 ft 465 kts 347°
2026-04-29 18:05 43.92926 1.24524 33940 ft 465 kts 348°
2026-04-29 18:06 43.99297 1.22900 33939 ft 465 kts 348°
2026-04-29 18:06 44.05669 1.21265 33934 ft 465 kts 348°
2026-04-29 18:07 44.12036 1.19611 33932 ft 465 kts 348°
2026-04-29 18:07 44.18399 1.17938 33927 ft 465 kts 348°
2026-04-29 18:08 44.24758 1.16268 33927 ft 465 kts 348°
2026-04-29 18:08 44.31119 1.14605 33926 ft 465 kts 348°
2026-04-29 18:09 44.37493 1.12936 33923 ft 466 kts 347°
2026-04-29 18:09 44.43869 1.11257 33917 ft 467 kts 347°
2026-04-29 18:10 44.50208 1.09579 33927 ft 467 kts 347°
2026-04-29 18:10 44.56594 1.07880 33932 ft 467 kts 347°
2026-04-29 18:11 44.62982 1.06184 33931 ft 467 kts 347°
2026-04-29 18:11 44.69368 1.04487 33926 ft 467 kts 347°
2026-04-29 18:12 44.75754 1.02791 33917 ft 467 kts 347°
2026-04-29 18:12 44.82141 1.01089 33932 ft 469 kts 347°
2026-04-29 18:13 44.88572 0.99366 33920 ft 471 kts 347°
2026-04-29 18:13 44.91795 0.98503 34134 ft 472 kts 347°
2026-04-29 18:13 44.95019 0.97640 34443 ft 471 kts 347°
2026-04-29 18:13 44.98231 0.96779 34727 ft 470 kts 347°
2026-04-29 18:14 45.01442 0.95914 35003 ft 469 kts 347°
2026-04-29 18:14 45.04648 0.95046 35273 ft 469 kts 347°
2026-04-29 18:14 45.07850 0.94180 35548 ft 468 kts 347°
2026-04-29 18:14 45.11044 0.93317 35810 ft 467 kts 347°
2026-04-29 18:15 45.14239 0.92454 35915 ft 467 kts 347°
2026-04-29 18:15 45.20618 0.90726 35921 ft 466 kts 347°
2026-04-29 18:16 45.26985 0.88999 35919 ft 466 kts 347°
2026-04-29 18:16 45.33351 0.87269 35922 ft 466 kts 347°
2026-04-29 18:17 45.39720 0.85532 35926 ft 466 kts 347°
2026-04-29 18:17 45.46087 0.83797 35929 ft 466 kts 347°
2026-04-29 18:18 45.52459 0.82065 35936 ft 466 kts 347°
2026-04-29 18:18 45.58829 0.80305 35944 ft 466 kts 347°
2026-04-29 18:19 45.65197 0.78547 35949 ft 466 kts 347°
2026-04-29 18:19 45.71571 0.76794 35945 ft 467 kts 347°
2026-04-29 18:20 45.77952 0.75024 35941 ft 468 kts 347°
2026-04-29 18:20 45.84344 0.73252 35941 ft 468 kts 347°
2026-04-29 18:21 45.90741 0.71476 35944 ft 468 kts 347°
2026-04-29 18:21 45.97137 0.69700 35944 ft 468 kts 346°
2026-04-29 18:22 46.03527 0.67921 35941 ft 467 kts 347°
2026-04-29 18:22 46.09910 0.66143 35942 ft 467 kts 346°
2026-04-29 18:23 46.16287 0.64348 35939 ft 467 kts 346°
2026-04-29 18:23 46.22659 0.62551 35943 ft 466 kts 346°
2026-04-29 18:24 46.29035 0.60758 35940 ft 466 kts 346°
2026-04-29 18:24 46.35397 0.58960 35937 ft 466 kts 346°
2026-04-29 18:25 46.41762 0.57162 35947 ft 466 kts 346°
2026-04-29 18:25 46.48083 0.55373 35950 ft 466 kts 346°
2026-04-29 18:26 46.54482 0.53823 35954 ft 468 kts 355°
2026-04-29 18:26 46.60965 0.54652 35949 ft 471 kts 12°
2026-04-29 18:27 46.67352 0.56788 35945 ft 471 kts 11°
2026-04-29 18:27 46.73744 0.58896 35942 ft 471 kts 11°
2026-04-29 18:28 46.80139 0.60986 35945 ft 471 kts 11°
2026-04-29 18:28 46.86533 0.63100 35945 ft 471 kts 11°
2026-04-29 18:29 46.92922 0.65242 35941 ft 471 kts 12°
2026-04-29 18:29 46.99311 0.67385 35946 ft 471 kts 11°
2026-04-29 18:30 47.05727 0.69273 35951 ft 469 kts
2026-04-29 18:30 47.12238 0.69940 35958 ft 468 kts
2026-04-29 18:31 47.18738 0.70617 35970 ft 468 kts
2026-04-29 18:31 47.25200 0.71296 35981 ft 468 kts
2026-04-29 18:32 47.31692 0.71983 35988 ft 468 kts
2026-04-29 18:32 47.41420 0.72996 35988 ft 467 kts
2026-04-29 18:33 47.47909 0.73720 35985 ft 467 kts
2026-04-29 18:33 47.53159 0.75602 35985 ft 469 kts 17°
2026-04-29 18:34 47.58300 0.78156 35982 ft 469 kts 17°
2026-04-29 18:34 47.65537 0.81718 35980 ft 468 kts 17°
2026-04-29 18:35 47.71722 0.84770 35974 ft 468 kts 17°
2026-04-29 18:35 47.77901 0.87828 35985 ft 468 kts 17°
2026-04-29 18:36 47.84066 0.90894 35995 ft 467 kts 17°
2026-04-29 18:36 47.90219 0.93973 36002 ft 466 kts 17°
2026-04-29 18:37 47.96351 0.97081 35997 ft 465 kts 17°
2026-04-29 18:37 48.02433 1.00177 35999 ft 464 kts 17°
2026-04-29 18:38 48.08546 1.03288 36015 ft 464 kts 17°
2026-04-29 18:38 48.14658 1.06393 36023 ft 464 kts 17°
2026-04-29 18:39 48.20763 1.09511 36021 ft 463 kts 17°
2026-04-29 18:39 48.26864 1.12627 36036 ft 463 kts 17°
2026-04-29 18:40 48.32958 1.15738 36042 ft 462 kts 17°
2026-04-29 18:40 48.39040 1.18847 36046 ft 461 kts 17°
2026-04-29 18:41 48.51169 1.25078 36057 ft 460 kts 17°
2026-04-29 18:42 48.57230 1.28192 36067 ft 459 kts 17°
2026-04-29 18:42 48.63255 1.31229 36075 ft 459 kts 15°
2026-04-29 18:43 48.69301 1.34256 36093 ft 457 kts 16°
2026-04-29 18:43 48.75319 1.37291 36101 ft 455 kts 15°
2026-04-29 18:44 48.81305 1.40346 36104 ft 453 kts 16°
2026-04-29 18:44 48.87275 1.43389 36104 ft 452 kts 15°
2026-04-29 18:45 48.93243 1.46445 36102 ft 452 kts 19°
2026-04-29 18:45 48.98709 1.51205 36097 ft 457 kts 37°
2026-04-29 18:46 49.03136 1.58190 36093 ft 459 kts 46°
2026-04-29 18:46 49.07383 1.65473 36097 ft 460 kts 47°
2026-04-29 18:47 49.11625 1.72751 36114 ft 458 kts 46°
2026-04-29 18:47 49.15848 1.80019 36123 ft 456 kts 46°
2026-04-29 18:48 49.20046 1.87262 36132 ft 454 kts 46°
2026-04-29 18:48 49.24219 1.94496 36146 ft 453 kts 47°
2026-04-29 18:49 49.28376 2.01724 36154 ft 452 kts 46°
2026-04-29 18:49 49.32514 2.08939 36163 ft 450 kts 46°
2026-04-29 18:50 49.36613 2.16081 36166 ft 449 kts 47°
2026-04-29 18:50 49.40725 2.23277 36164 ft 448 kts 46°
2026-04-29 18:51 49.44817 2.30475 36162 ft 446 kts 46°
2026-04-29 18:51 49.48889 2.37664 36160 ft 445 kts 47°
2026-04-29 18:52 49.52949 2.44847 36163 ft 444 kts 47°
2026-04-29 18:52 49.57505 2.51124 36154 ft 438 kts 31°
2026-04-29 18:53 49.62673 2.56071 36164 ft 437 kts 30°
2026-04-29 18:53 49.67817 2.61050 36162 ft 436 kts 31°
2026-04-29 18:54 49.72951 2.66044 36163 ft 436 kts 32°
2026-04-29 18:54 49.78064 2.71033 36177 ft 434 kts 32°
2026-04-29 18:55 49.83160 2.76004 36178 ft 432 kts 32°
2026-04-29 18:55 49.88202 2.80935 36182 ft 431 kts 32°
2026-04-29 18:56 49.93262 2.85900 36176 ft 430 kts 32°
2026-04-29 18:56 49.98305 2.90859 36181 ft 429 kts 33°
2026-04-29 18:57 50.03336 2.95816 36182 ft 428 kts 33°
2026-04-29 18:57 50.08354 3.00777 36179 ft 427 kts 33°
2026-04-29 18:58 50.13363 3.05738 36178 ft 427 kts 33°
2026-04-29 18:58 50.18365 3.10709 36172 ft 426 kts 34°
2026-04-29 18:59 50.23424 3.15559 36183 ft 427 kts 27°
2026-04-29 18:59 50.28849 3.19376 35998 ft 426 kts 25°
2026-04-29 19:00 50.31561 3.21270 35648 ft 428 kts 26°
2026-04-29 19:00 50.34285 3.23178 35280 ft 428 kts 26°
2026-04-29 19:00 50.36998 3.25087 34915 ft 428 kts 26°
2026-04-29 19:00 50.39711 3.27001 34553 ft 428 kts 27°
2026-04-29 19:01 50.42414 3.28952 34187 ft 428 kts 28°
2026-04-29 19:01 50.45096 3.31000 33779 ft 428 kts 29°
2026-04-29 19:01 50.47758 3.33106 33373 ft 428 kts 30°
2026-04-29 19:01 50.50379 3.35208 32975 ft 429 kts 30°
2026-04-29 19:02 50.53053 3.37306 32576 ft 430 kts 28°
2026-04-29 19:02 50.54887 3.38657 32311 ft 431 kts 27°
2026-04-29 19:02 50.58525 3.41178 31801 ft 431 kts 26°
2026-04-29 19:02 50.61282 3.43018 31404 ft 429 kts 26°
2026-04-29 19:03 50.64020 3.44831 31027 ft 426 kts 26°
2026-04-29 19:03 50.66740 3.46645 30665 ft 423 kts 27°
2026-04-29 19:03 50.69432 3.48471 30314 ft 420 kts 27°
2026-04-29 19:03 50.72105 3.50313 29819 ft 418 kts 27°
2026-04-29 19:04 50.74752 3.52159 29318 ft 415 kts 27°
2026-04-29 19:04 50.77380 3.53999 28817 ft 412 kts 27°
2026-04-29 19:04 50.79985 3.55821 28331 ft 409 kts 27°
2026-04-29 19:04 50.82584 3.57637 27847 ft 406 kts 27°
2026-04-29 19:05 50.85162 3.59436 27378 ft 404 kts 27°
2026-04-29 19:05 50.87724 3.61224 26916 ft 401 kts 27°
2026-04-29 19:05 50.90324 3.62823 26456 ft 401 kts 22°
2026-04-29 19:05 50.92967 3.64207 26010 ft 399 kts 21°
2026-04-29 19:06 50.95616 3.65506 25569 ft 398 kts 20°
2026-04-29 19:06 50.98262 3.66761 25135 ft 396 kts 20°
2026-04-29 19:06 51.03515 3.69247 24292 ft 392 kts 20°
2026-04-29 19:07 51.06119 3.70503 23880 ft 390 kts 20°
2026-04-29 19:07 51.07833 3.71337 23559 ft 389 kts 21°
2026-04-29 19:07 51.11278 3.73029 22918 ft 385 kts 21°
2026-04-29 19:07 51.13828 3.74289 22442 ft 382 kts 20°
2026-04-29 19:08 51.16354 3.75538 22227 ft 380 kts 20°
2026-04-29 19:08 51.18877 3.76790 22254 ft 380 kts 21°
2026-04-29 19:08 51.21404 3.78048 22257 ft 381 kts 21°
2026-04-29 19:08 51.23933 3.79307 22258 ft 381 kts 21°
2026-04-29 19:09 51.26463 3.80569 22252 ft 380 kts 21°
2026-04-29 19:09 51.28990 3.81831 22259 ft 380 kts 20°
2026-04-29 19:09 51.31510 3.83088 22265 ft 379 kts 20°
2026-04-29 19:09 51.33996 3.84324 22262 ft 379 kts 20°
2026-04-29 19:10 51.36512 3.85574 22264 ft 379 kts 20°
2026-04-29 19:10 51.39030 3.86828 21934 ft 380 kts 20°
2026-04-29 19:10 51.41591 3.88108 20911 ft 390 kts 20°
2026-04-29 19:10 51.44185 3.89406 20222 ft 390 kts 20°
2026-04-29 19:11 51.46768 3.90703 19642 ft 388 kts 20°
2026-04-29 19:11 51.49331 3.91992 19084 ft 385 kts 20°
2026-04-29 19:11 51.51875 3.93273 18540 ft 382 kts 20°
2026-04-29 19:11 51.54396 3.94543 17952 ft 378 kts 20°
2026-04-29 19:12 51.56895 3.95801 17395 ft 374 kts 20°
2026-04-29 19:12 51.59368 3.97044 16857 ft 371 kts 20°
2026-04-29 19:12 51.61819 3.98276 16331 ft 367 kts 20°
2026-04-29 19:12 51.62641 3.98690 16154 ft 366 kts 20°
2026-04-29 19:13 51.66652 4.00720 15323 ft 361 kts 20°
2026-04-29 19:13 51.69040 4.01926 14831 ft 358 kts 20°
2026-04-29 19:13 51.71407 4.03125 14355 ft 355 kts 20°
2026-04-29 19:13 51.73751 4.04318 13859 ft 352 kts 20°
2026-04-29 19:14 51.76077 4.05503 13314 ft 350 kts 21°
2026-04-29 19:14 51.78392 4.06682 12773 ft 347 kts 21°
2026-04-29 19:14 51.80687 4.07850 12263 ft 345 kts 21°
2026-04-29 19:14 51.82970 4.09014 11718 ft 343 kts 21°
2026-04-29 19:15 51.85209 4.10156 11539 ft 330 kts 21°
2026-04-29 19:15 51.87308 4.11219 11385 ft 302 kts 21°
2026-04-29 19:15 51.89253 4.12200 10914 ft 287 kts 21°
2026-04-29 19:15 51.91094 4.13334 10300 ft 281 kts 32°
2026-04-29 19:16 51.92678 4.15104 9951 ft 275 kts 43°
2026-04-29 19:16 51.94155 4.17059 9593 ft 271 kts 43°
2026-04-29 19:16 51.95609 4.18974 9258 ft 268 kts 43°
2026-04-29 19:16 51.97049 4.20873 8870 ft 266 kts 43°
2026-04-29 19:17 51.98480 4.22763 8480 ft 264 kts 43°
2026-04-29 19:17 51.99901 4.24640 8111 ft 263 kts 43°
2026-04-29 19:17 52.01314 4.26507 7723 ft 261 kts 43°
2026-04-29 19:17 52.02720 4.28371 7337 ft 261 kts 43°
2026-04-29 19:18 52.04121 4.30231 6963 ft 259 kts 43°
2026-04-29 19:18 52.04592 4.30856 6828 ft 259 kts 44°
2026-04-29 19:18 52.06900 4.33926 6153 ft 258 kts 44°
2026-04-29 19:18 52.08287 4.35770 5740 ft 257 kts 44°
2026-04-29 19:19 52.09670 4.37606 5347 ft 257 kts 44°
2026-04-29 19:19 52.11058 4.39435 4936 ft 257 kts 44°
2026-04-29 19:19 52.12437 4.41269 4541 ft 255 kts 44°
2026-04-29 19:19 52.13805 4.43093 4170 ft 253 kts 44°
2026-04-29 19:20 52.15154 4.44891 3866 ft 248 kts 44°
2026-04-29 19:20 52.16034 4.46061 3687 ft 244 kts 44°
2026-04-29 19:20 52.17326 4.47769 3536 ft 234 kts 44°
2026-04-29 19:20 52.18567 4.49400 3376 ft 225 kts 44°
2026-04-29 19:21 52.19772 4.50990 3142 ft 220 kts 45°
2026-04-29 19:21 52.20815 4.52715 2962 ft 206 kts 60°
2026-04-29 19:21 52.21582 4.54683 2685 ft 204 kts 62°
2026-04-29 19:21 52.22302 4.56587 2415 ft 190 kts 62°
2026-04-29 19:22 52.22983 4.58347 2214 ft 175 kts 62°
2026-04-29 19:22 52.23609 4.59956 1950 ft 163 kts 63°
2026-04-29 19:22 52.24187 4.61474 1782 ft 150 kts 63°
2026-04-29 19:22 52.24730 4.62875 1539 ft 142 kts 63°
2026-04-29 19:23 52.25252 4.64233 1329 ft 139 kts 64°
2026-04-29 19:23 52.25762 4.65557 1172 ft 137 kts 63°
2026-04-29 19:23 52.26268 4.66879 1019 ft 137 kts 61°
2026-04-29 19:23 52.26780 4.68194 830 ft 140 kts 60°
2026-04-29 19:24 52.27300 4.69537 626 ft 139 kts 60°
2026-04-29 19:24 52.27811 4.70854 438 ft 138 kts 62°
2026-04-29 19:24 52.28334 4.72217 255 ft 139 kts 62°
2026-04-29 19:24 52.28836 4.73524 58 ft 137 kts 60°
2026-04-29 19:25 52.29320 4.74790 -1 ft 118 kts 58°
2026-04-29 19:25 52.29661 4.75675 -2 ft 72 kts 57°
2026-04-29 19:25 52.29871 4.76215 -3 ft 44 kts 58°
2026-04-29 19:25 52.30015 4.76526 -2 ft 27 kts 33°
2026-04-29 19:26 52.30165 4.76657 -1 ft 21 kts 27°
2026-04-29 19:26 52.30267 4.76740 -1 ft 14 kts 20°
2026-04-29 19:26 52.30342 4.76696 -1 ft 11 kts 298°
2026-04-29 19:26 52.30365 4.76595 -1 ft 0 kts 306°
2026-04-29 19:27 52.30362 4.76602 -1 ft 3 kts 308°
2026-04-29 19:27 52.30354 4.76614 -1 ft 1 kts 45°
2026-04-29 19:28 52.30356 4.76651 -1 ft 9 kts 81°
2026-04-29 19:28 52.30381 4.76742 -1 ft 9 kts 46°
2026-04-29 19:28 52.30429 4.76736 -1 ft 7 kts 336°
2026-04-29 19:28 52.30459 4.76714 -1 ft 0 kts 335°